iso_date,epoch_date,Year,Hour,Min,DOY,POS_DOY,Lat,Lon,BP,Ts,Ta,has_bp,has_ts,has_ta,BuoyID,Buoy_Type,Buoy_Owner,Logistics,Hemisphere
2017-08-08T22:00:28Z,1502229629,2017,22,1,220.917,220.917,70.1133,-168.66671,1014.0,-999.00,-999.0,yes,no,no,300025060405040,IMB,AWI-USIABP,unknown,North
2017-08-08T22:59:31Z,1502233171,2017,23,0,220.958,220.958,70.31924,-168.66627,1012.9,-999.00,-999.0,yes,no,no,300025060405040,IMB,AWI-USIABP,unknown,North
2017-08-09T00:00:00Z,1502236800,2017,0,0,221.0,221.0,70.50023,-168.66635,1011.4,-999.00,-999.0,yes,no,no,300025060405040,IMB,AWI-USIABP,unknown,North
2017-08-09T01:00:28Z,1502240429,2017,1,0,221.042,221.042,70.50025,-168.66634,1010.3,-999.00,-999.0,yes,no,no,300025060405040,IMB,AWI-USIABP,unknown,North
2017-08-09T01:59:31Z,1502243971,2017,2,0,221.083,221.083,70.50029,-168.66624,1009.7,-999.00,-999.0,yes,no,no,300025060405040,IMB,AWI-USIABP,unknown,North
2017-08-09T03:00:00Z,1502247600,2017,3,0,221.125,221.125,70.49347,-168.68276,1009.2,-999.00,-999.0,yes,no,no,300025060405040,IMB,AWI-USIABP,unknown,North
2017-08-09T04:00:28Z,1502251229,2017,4,0,221.167,221.167,70.54877,-168.71249,1008.4,-999.00,-999.0,yes,no,no,300025060405040,IMB,AWI-USIABP,unknown,North
2017-08-09T04:59:31Z,1502254771,2017,5,0,221.208,221.208,70.74744,-168.67249,1007.7,-999.00,-999.0,yes,no,no,300025060405040,IMB,AWI-USIABP,unknown,North
2017-08-09T06:00:00Z,1502258400,2017,6,0,221.25,221.25,70.94185,-168.6631,1007.2,-999.00,-999.0,yes,no,no,300025060405040,IMB,AWI-USIABP,unknown,North
2017-08-09T07:00:28Z,1502262029,2017,7,0,221.292,221.292,71.12518,-168.66389,1007.9,-999.00,-999.0,yes,no,no,300025060405040,IMB,AWI-USIABP,unknown,North
2017-08-09T07:59:31Z,1502265571,2017,8,0,221.333,221.333,71.308,-168.6667,1008.7,-999.00,-999.0,yes,no,no,300025060405040,IMB,AWI-USIABP,unknown,North
2017-08-09T09:00:00Z,1502269200,2017,9,0,221.375,221.375,71.42977,-168.66564,1010.4,-999.00,-999.0,yes,no,no,300025060405040,IMB,AWI-USIABP,unknown,North
2017-08-09T10:00:28Z,1502272829,2017,10,0,221.417,221.417,71.46422,-168.66379,1011.0,-999.00,-999.0,yes,no,no,300025060405040,IMB,AWI-USIABP,unknown,North
2017-08-09T10:59:31Z,1502276371,2017,11,0,221.458,221.458,71.65075,-168.66713,1011.6,-999.00,-999.0,yes,no,no,300025060405040,IMB,AWI-USIABP,unknown,North
2017-08-09T12:00:00Z,1502280000,2017,12,0,221.5,221.5,71.8359,-168.66672,1012.0,-999.00,-999.0,yes,no,no,300025060405040,IMB,AWI-USIABP,unknown,North
2017-08-09T13:00:28Z,1502283629,2017,13,0,221.542,221.542,72.02219,-168.66651,1012.5,-999.00,-999.0,yes,no,no,300025060405040,IMB,AWI-USIABP,unknown,North
2017-08-09T13:59:31Z,1502287171,2017,14,0,221.583,221.583,72.21065,-168.66634,1012.9,-999.00,-999.0,yes,no,no,300025060405040,IMB,AWI-USIABP,unknown,North
2017-08-09T15:00:00Z,1502290800,2017,15,0,221.625,221.625,72.35984,-168.66616,1013.7,-999.00,-999.0,yes,no,no,300025060405040,IMB,AWI-USIABP,unknown,North
2017-08-09T16:00:28Z,1502294429,2017,16,0,221.667,221.667,72.36011,-168.66592,1014.2,-999.00,-999.0,yes,no,no,300025060405040,IMB,AWI-USIABP,unknown,North
2017-08-09T16:59:31Z,1502297971,2017,17,0,221.708,221.708,72.35985,-168.66586,1014.8,-999.00,-999.0,yes,no,no,300025060405040,IMB,AWI-USIABP,unknown,North
2017-08-09T18:00:00Z,1502301600,2017,18,0,221.75,221.75,72.35994,-168.66578,1015.0,-999.00,-999.0,yes,no,no,300025060405040,IMB,AWI-USIABP,unknown,North
2017-08-09T19:00:28Z,1502305229,2017,19,0,221.792,221.792,72.3939,-168.69963,1015.0,-999.00,-999.0,yes,no,no,300025060405040,IMB,AWI-USIABP,unknown,North
2017-08-09T19:59:31Z,1502308771,2017,20,0,221.833,221.833,72.57784,-168.54668,1014.9,-999.00,-999.0,yes,no,no,300025060405040,IMB,AWI-USIABP,unknown,North
2017-08-09T21:00:00Z,1502312400,2017,21,0,221.875,221.875,72.75981,-168.45851,1014.6,-999.00,-999.0,yes,no,no,300025060405040,IMB,AWI-USIABP,unknown,North
2017-08-09T22:00:28Z,1502316029,2017,22,0,221.917,221.917,72.94149,-168.36301,1014.2,-999.00,-999.0,yes,no,no,300025060405040,IMB,AWI-USIABP,unknown,North
2017-08-09T22:59:31Z,1502319571,2017,23,0,221.958,221.958,73.05498,-168.30226,1013.8,-999.00,-999.0,yes,no,no,300025060405040,IMB,AWI-USIABP,unknown,North
2017-08-10T00:00:00Z,1502323200,2017,0,0,222.0,222.0,73.05514,-168.30216,1013.6,-999.00,-999.0,yes,no,no,300025060405040,IMB,AWI-USIABP,unknown,North
2017-08-10T01:00:28Z,1502326829,2017,1,0,222.042,222.042,73.21556,-168.2985,1012.9,-999.00,-999.0,yes,no,no,300025060405040,IMB,AWI-USIABP,unknown,North
2017-08-10T01:59:31Z,1502330371,2017,2,0,222.083,222.083,73.4246,-168.28776,1011.7,-999.00,-999.0,yes,no,no,300025060405040,IMB,AWI-USIABP,unknown,North
2017-08-14T21:31:40Z,1502746301,2017,21,32,226.897,226.897,77.66643,179.8813,1001.7,-999.00,-999.0,yes,no,no,300025060405040,IMB,AWI-USIABP,unknown,North
2017-08-14T22:00:28Z,1502748029,2017,22,1,226.917,226.917,77.67149,179.89513,1000.0,-999.00,-999.0,yes,no,no,300025060405040,IMB,AWI-USIABP,unknown,North
2017-08-14T22:59:31Z,1502751571,2017,23,0,226.958,226.958,77.68167,179.92539,998.0,-999.00,-999.0,yes,no,no,300025060405040,IMB,AWI-USIABP,unknown,North
2017-08-15T00:00:00Z,1502755200,2017,0,0,227.0,227.0,77.69095,179.95287,995.8,-999.00,-999.0,yes,no,no,300025060405040,IMB,AWI-USIABP,unknown,North
2017-08-15T01:00:28Z,1502758829,2017,1,0,227.042,227.042,77.69908,179.98227,994.3,-999.00,-999.0,yes,no,no,300025060405040,IMB,AWI-USIABP,unknown,North
2017-08-15T01:59:31Z,1502762371,2017,2,0,227.083,227.083,77.70544,-179.99439,992.8,-999.00,-999.0,yes,no,no,300025060405040,IMB,AWI-USIABP,unknown,North
2017-08-15T03:00:00Z,1502766000,2017,3,0,227.125,227.125,77.70998,-179.97808,991.6,-999.00,-999.0,yes,no,no,300025060405040,IMB,AWI-USIABP,unknown,North
2017-08-15T04:00:28Z,1502769629,2017,4,0,227.167,227.167,77.71307,-179.97233,990.6,-999.00,-999.0,yes,no,no,300025060405040,IMB,AWI-USIABP,unknown,North
2017-08-15T04:59:31Z,1502773171,2017,5,0,227.208,227.208,77.71542,-179.97459,990.1,-999.00,-999.0,yes,no,no,300025060405040,IMB,AWI-USIABP,unknown,North
2017-08-15T06:00:00Z,1502776800,2017,6,0,227.25,227.25,77.71745,-179.98101,990.1,-999.00,-999.0,yes,no,no,300025060405040,IMB,AWI-USIABP,unknown,North
2017-08-15T07:00:28Z,1502780429,2017,7,0,227.292,227.292,77.71943,-179.9887,990.2,-999.00,-999.0,yes,no,no,300025060405040,IMB,AWI-USIABP,unknown,North
2017-08-15T07:59:31Z,1502783971,2017,8,0,227.333,227.333,77.72172,-179.99672,990.6,-999.00,-999.0,yes,no,no,300025060405040,IMB,AWI-USIABP,unknown,North
2017-08-15T09:00:00Z,1502787600,2017,9,0,227.375,227.375,77.72425,179.99367,990.8,-999.00,-999.0,yes,no,no,300025060405040,IMB,AWI-USIABP,unknown,North
2017-08-15T10:00:28Z,1502791229,2017,10,0,227.417,227.417,77.72693,179.98432,991.4,-999.00,-999.0,yes,no,no,300025060405040,IMB,AWI-USIABP,unknown,North
2017-08-15T10:59:31Z,1502794771,2017,11,0,227.458,227.458,77.72938,179.97962,992.3,-999.00,-999.0,yes,no,no,300025060405040,IMB,AWI-USIABP,unknown,North
2017-08-15T12:00:00Z,1502798400,2017,12,0,227.5,227.5,77.7307,179.97857,992.9,-999.00,-999.0,yes,no,no,300025060405040,IMB,AWI-USIABP,unknown,North
2017-08-15T13:00:28Z,1502802029,2017,13,0,227.542,227.542,77.73019,179.97752,993.5,-999.00,-999.0,yes,no,no,300025060405040,IMB,AWI-USIABP,unknown,North
2017-08-15T13:59:31Z,1502805571,2017,14,0,227.583,227.583,77.72839,179.97101,994.2,-999.00,-999.0,yes,no,no,300025060405040,IMB,AWI-USIABP,unknown,North
2017-08-15T15:00:00Z,1502809200,2017,15,0,227.625,227.625,77.72558,179.95662,995.0,-999.00,-999.0,yes,no,no,300025060405040,IMB,AWI-USIABP,unknown,North
2017-08-15T16:00:28Z,1502812829,2017,16,0,227.667,227.667,77.7219,179.93523,995.8,-999.00,-999.0,yes,no,no,300025060405040,IMB,AWI-USIABP,unknown,North
2017-08-15T16:59:31Z,1502816371,2017,17,0,227.708,227.708,77.71817,179.90611,996.5,-999.00,-999.0,yes,no,no,300025060405040,IMB,AWI-USIABP,unknown,North
2017-08-15T18:00:00Z,1502820000,2017,18,0,227.75,227.75,77.71538,179.86793,997.4,-999.00,-999.0,yes,no,no,300025060405040,IMB,AWI-USIABP,unknown,North
2017-08-15T19:00:28Z,1502823629,2017,19,0,227.792,227.792,77.71437,179.82471,998.3,-999.00,-999.0,yes,no,no,300025060405040,IMB,AWI-USIABP,unknown,North
2017-08-15T19:59:31Z,1502827171,2017,20,0,227.833,227.833,77.71537,179.78328,999.2,-999.00,-999.0,yes,no,no,300025060405040,IMB,AWI-USIABP,unknown,North
2017-08-15T21:00:00Z,1502830800,2017,21,0,227.875,227.875,77.71785,179.74601,999.9,-999.00,-999.0,yes,no,no,300025060405040,IMB,AWI-USIABP,unknown,North
2017-08-15T22:00:28Z,1502834429,2017,22,0,227.917,227.917,77.72113,179.71504,1000.6,-999.00,-999.0,yes,no,no,300025060405040,IMB,AWI-USIABP,unknown,North
2017-08-15T22:59:31Z,1502837971,2017,23,0,227.958,227.958,77.72439,179.69018,1001.5,-999.00,-999.0,yes,no,no,300025060405040,IMB,AWI-USIABP,unknown,North
2017-08-16T00:00:00Z,1502841600,2017,0,0,228.0,228.0,77.7271,179.67002,1002.3,-999.00,-999.0,yes,no,no,300025060405040,IMB,AWI-USIABP,unknown,North
2017-08-16T01:00:28Z,1502845229,2017,1,0,228.042,228.042,77.72857,179.65252,1003.2,-999.00,-999.0,yes,no,no,300025060405040,IMB,AWI-USIABP,unknown,North
2017-08-16T01:59:31Z,1502848771,2017,2,0,228.083,228.083,77.72926,179.63225,1004.0,-999.00,-999.0,yes,no,no,300025060405040,IMB,AWI-USIABP,unknown,North
2017-08-16T03:00:00Z,1502852400,2017,3,0,228.125,228.125,77.72956,179.6139,1004.5,-999.00,-999.0,yes,no,no,300025060405040,IMB,AWI-USIABP,unknown,North
2017-08-16T04:00:28Z,1502856029,2017,4,0,228.167,228.167,77.72894,179.58892,1005.4,-999.00,-999.0,yes,no,no,300025060405040,IMB,AWI-USIABP,unknown,North
2017-08-16T04:59:31Z,1502859571,2017,5,0,228.208,228.208,77.72758,179.55621,1006.1,-999.00,-999.0,yes,no,no,300025060405040,IMB,AWI-USIABP,unknown,North
2017-08-16T06:00:00Z,1502863200,2017,6,0,228.25,228.25,77.72634,179.51957,1006.5,-999.00,-999.0,yes,no,no,300025060405040,IMB,AWI-USIABP,unknown,North
2017-08-16T07:00:28Z,1502866829,2017,7,0,228.292,228.292,77.72562,179.48021,1007.3,-999.00,-999.0,yes,no,no,300025060405040,IMB,AWI-USIABP,unknown,North
2017-08-16T07:59:31Z,1502870371,2017,8,0,228.333,228.333,77.72618,179.44182,1007.6,-999.00,-999.0,yes,no,no,300025060405040,IMB,AWI-USIABP,unknown,North
2017-08-16T09:00:00Z,1502874000,2017,9,0,228.375,228.375,77.72721,179.40931,1007.6,-999.00,-999.0,yes,no,no,300025060405040,IMB,AWI-USIABP,unknown,North
2017-08-16T10:00:28Z,1502877629,2017,10,0,228.417,228.417,77.72811,179.38733,1007.5,-999.00,-999.0,yes,no,no,300025060405040,IMB,AWI-USIABP,unknown,North
2017-08-16T10:59:31Z,1502881171,2017,11,0,228.458,228.458,77.72812,179.3738,1007.1,-999.00,-999.0,yes,no,no,300025060405040,IMB,AWI-USIABP,unknown,North
2017-08-16T12:00:00Z,1502884800,2017,12,0,228.5,228.5,77.72684,179.36533,1006.8,-999.00,-999.0,yes,no,no,300025060405040,IMB,AWI-USIABP,unknown,North
2017-08-16T13:00:28Z,1502888429,2017,13,0,228.542,228.542,77.72352,179.35749,1006.4,-999.00,-999.0,yes,no,no,300025060405040,IMB,AWI-USIABP,unknown,North
2017-08-16T13:59:31Z,1502891971,2017,14,0,228.583,228.583,77.71847,179.34757,1005.7,-999.00,-999.0,yes,no,no,300025060405040,IMB,AWI-USIABP,unknown,North
2017-08-16T15:00:00Z,1502895600,2017,15,0,228.625,228.625,77.71116,179.33295,1005.1,-999.00,-999.0,yes,no,no,300025060405040,IMB,AWI-USIABP,unknown,North
2017-08-16T16:00:28Z,1502899229,2017,16,0,228.667,228.667,77.70241,179.31086,1004.3,-999.00,-999.0,yes,no,no,300025060405040,IMB,AWI-USIABP,unknown,North
2017-08-16T16:59:31Z,1502902771,2017,17,0,228.708,228.708,77.69316,179.28329,1003.9,-999.00,-999.0,yes,no,no,300025060405040,IMB,AWI-USIABP,unknown,North
2017-08-16T18:00:00Z,1502906400,2017,18,0,228.75,228.75,77.68425,179.24916,1003.1,-999.00,-999.0,yes,no,no,300025060405040,IMB,AWI-USIABP,unknown,North
2017-08-16T19:00:28Z,1502910029,2017,19,0,228.792,228.792,77.67597,179.20958,1002.3,-999.00,-999.0,yes,no,no,300025060405040,IMB,AWI-USIABP,unknown,North
2017-08-16T19:59:31Z,1502913571,2017,20,0,228.833,228.833,77.66958,179.17109,1001.7,-999.00,-999.0,yes,no,no,300025060405040,IMB,AWI-USIABP,unknown,North
2017-08-16T21:00:00Z,1502917200,2017,21,0,228.875,228.875,77.66493,179.13444,1000.9,-999.00,-999.0,yes,no,no,300025060405040,IMB,AWI-USIABP,unknown,North
2017-08-16T22:00:28Z,1502920829,2017,22,0,228.917,228.917,77.66234,179.10428,1000.2,-999.00,-999.0,yes,no,no,300025060405040,IMB,AWI-USIABP,unknown,North
2017-08-16T22:59:31Z,1502924371,2017,23,0,228.958,228.958,77.6603,179.08112,999.7,-999.00,-999.0,yes,no,no,300025060405040,IMB,AWI-USIABP,unknown,North
2017-08-17T00:00:00Z,1502928000,2017,0,0,229.0,229.0,77.65798,179.06708,998.9,-999.00,-999.0,yes,no,no,300025060405040,IMB,AWI-USIABP,unknown,North
2017-08-17T01:00:28Z,1502931629,2017,1,0,229.042,229.042,77.65492,179.06009,998.3,-999.00,-999.0,yes,no,no,300025060405040,IMB,AWI-USIABP,unknown,North
2017-08-17T01:59:31Z,1502935171,2017,2,0,229.083,229.083,77.65137,179.05621,997.9,-999.00,-999.0,yes,no,no,300025060405040,IMB,AWI-USIABP,unknown,North
2017-08-17T03:00:00Z,1502938800,2017,3,0,229.125,229.125,77.64746,179.05139,997.5,-999.00,-999.0,yes,no,no,300025060405040,IMB,AWI-USIABP,unknown,North
2017-08-17T04:00:28Z,1502942429,2017,4,0,229.167,229.167,77.64324,179.04452,997.6,-999.00,-999.0,yes,no,no,300025060405040,IMB,AWI-USIABP,unknown,North
2017-08-17T04:59:31Z,1502945971,2017,5,0,229.208,229.208,77.63926,179.03356,997.4,-999.00,-999.0,yes,no,no,300025060405040,IMB,AWI-USIABP,unknown,North
2017-08-17T06:00:00Z,1502949600,2017,6,0,229.25,229.25,77.636,179.01721,997.7,-999.00,-999.0,yes,no,no,300025060405040,IMB,AWI-USIABP,unknown,North
2017-08-17T07:00:28Z,1502953229,2017,7,0,229.292,229.292,77.63417,178.99734,997.9,-999.00,-999.0,yes,no,no,300025060405040,IMB,AWI-USIABP,unknown,North
2017-08-17T07:59:31Z,1502956771,2017,8,0,229.333,229.333,77.63405,178.97571,998.1,-999.00,-999.0,yes,no,no,300025060405040,IMB,AWI-USIABP,unknown,North
2017-08-17T09:00:00Z,1502960400,2017,9,0,229.375,229.375,77.63526,178.95607,998.7,-999.00,-999.0,yes,no,no,300025060405040,IMB,AWI-USIABP,unknown,North
2017-08-17T10:00:28Z,1502964029,2017,10,0,229.417,229.417,77.63815,178.94127,999.3,-999.00,-999.0,yes,no,no,300025060405040,IMB,AWI-USIABP,unknown,North
2017-08-17T10:59:31Z,1502967571,2017,11,0,229.458,229.458,77.64187,178.93264,999.6,-999.00,-999.0,yes,no,no,300025060405040,IMB,AWI-USIABP,unknown,North
2017-08-17T12:00:00Z,1502971200,2017,12,0,229.5,229.5,77.6457,178.92987,1000.1,-999.00,-999.0,yes,no,no,300025060405040,IMB,AWI-USIABP,unknown,North
2017-08-17T13:00:28Z,1502974829,2017,13,0,229.542,229.542,77.64927,178.93188,1000.5,-999.00,-999.0,yes,no,no,300025060405040,IMB,AWI-USIABP,unknown,North
2017-08-17T13:59:31Z,1502978371,2017,14,0,229.583,229.583,77.65226,178.93714,1001.1,-999.00,-999.0,yes,no,no,300025060405040,IMB,AWI-USIABP,unknown,North
2017-08-17T15:00:00Z,1502982000,2017,15,0,229.625,229.625,77.65502,178.94082,1001.6,-999.00,-999.0,yes,no,no,300025060405040,IMB,AWI-USIABP,unknown,North
